Location: Sankt+Gallen
(47.4262°N, 9.3755°E)
Time: 09:05:30
(UTC+01:00)

ARIANE 6 FM1 Upper Stage - Pass Details

Date: 16 February 2026
Orbit: 523 x 606 km, 62.0° (Epoch: 14 March)

Event Time Altitude Azimuth Distance (km) Brightness Sun altitude
Rises 18:37:34 0° 321° (NW) 2,663 6.6 -9.1°
Reaches altitude 10° 18:39:53 10° 330° (NNW) 1,769 5.5 -9.5°
Maximum altitude 18:43:34 36° 38° (NE) 851 3.2 -10.1°
Enters shadow 18:46:36 14° 102° (ESE) 1,539 4.3 -10.6°
